This is the latest recevied weather packets stored in our database for station/object WX7FGZ-7. If no packets are shown the sender has not sent any weather packets the latest 10 day(s).
| Time | Temp. | Humidity | Pressure | Rain* | Wind** | Luminosity | Snow |
|---|---|---|---|---|---|---|---|
| 1777826949 | 21.67° C | 31% | 1020.7 hPa | 0 mm | - | - | - |
| 1777826739 | 21.67° C | 31% | 1020.7 hPa | 0 mm | - | - | - |
| 1777826050 | 21.11° C | 32% | 1020.6 hPa | 0 mm | - | - | - |
| 1777825839 | 21.11° C | 32% | 1020.6 hPa | 0 mm | - | - | - |
| 1777825241 | 20.56° C | 34% | 1020.6 hPa | 0 mm | - | - | - |
| 1777824945 | 20° C | 35% | 1020.9 hPa | 0 mm | - | - | - |
| 1777824524 | 19.44° C | 35% | 1019.8 hPa | 0 mm | - | - | - |
| 1777824339 | 19.44° C | 35% | 1019.8 hPa | 0 mm | - | - | - |
| 1777824256 | 19.44° C | 34% | 1019.8 hPa | 0 mm | - | - | - |
| 1777824039 | 19.44° C | 34% | 1019.8 hPa | 0 mm | - | - | - |
| 1777823739 | 18.89° C | 36% | 1019.8 hPa | 0 mm | - | - | - |
| 1777823708 | 18.89° C | 35% | 1019.8 hPa | 0 mm | - | - | - |
| 1777823516 | 18.89° C | 35% | 1019.8 hPa | 0 mm | - | - | - |
| 1777823507 | 18.89° C | 33% | 1019.8 hPa | 0 mm | - | - | - |
| 1777823443 | 18.89° C | 35% | 1019.8 hPa | 0 mm | - | - | - |
| 1777823142 | 18.89° C | 33% | 1019.8 hPa | 0 mm | - | - | - |
| 1777822847 | 18.89° C | 36% | 1019.8 hPa | 0 mm | - | - | - |
| 1777822821 | 18.33° C | 34% | 1019.9 hPa | 0 mm | - | - | - |
| 1777822788 | 18.33° C | 34% | 1019.9 hPa | 0 mm | - | - | - |
| 1777822543 | 18.33° C | 34% | 1019.9 hPa | 0 mm | - | - | - |
| 1777822472 | 18.33° C | 34% | 1020 hPa | 0 mm | - | - | - |
| 1777822272 | 18.33° C | 34% | 1020 hPa | 0 mm | - | - | - |
| 1777822239 | 18.33° C | 34% | 1020 hPa | 0 mm | - | - | - |
| 1777821959 | 18.33° C | 35% | 1020 hPa | 0 mm | - | - | - |
| 1777821839 | 18.33° C | 37% | 1020.2 hPa | 0 mm | - | - | - |
* Rain latest hour (hover to see other rain measurements)
** Current wind speed in m/s (hover to see current wind gust speed)